Weather History for Karlovy Vary, Czech Republic

Change the Weather History Date:

Friday, April 12, 2013

  Actual Average (EDQM) Record (EDQM)
Temperature  
Mean Temperature 46 °F -  
Max Temperature 51 °F 47 °F 69 °F (2009)
Min Temperature 41 °F 34 °F 28 °F (1997)
Degree Days  
Heating Degree Days 19    
Moisture  
Dew Point 42 °F    
Average Humidity 81    
Maximum Humidity 100    
Minimum Humidity 62    
Precipitation  
Precipitation 0.00 in - - ()
Sea Level Pressure  
Sea Level Pressure 29.64 in    
Wind  
Wind Speed 8 mph ()    
Max Wind Speed 17 mph    
Max Gust Speed 32 mph    
Visibility 6.2 miles    
Events Rain    
Averages and records for this station are not official NWS values.
T = Trace of Precipitation, MM = Missing Value Source: Averaged Metar Reports

Daily Weather History Graph

Daily Weather History Graph

Search for Another Location

Airport:

Trip Planner

Search our weather history database for the weather conditions in past years. The results will help you decide how hot, cold, wet, or windy it might be!

Date:

Astronomy

Apr. 12, 2013 Rise Set
Actual Time 6:21 AM CEST 7:57 PM CEST
Civil Twilight 5:47 AM CEST 8:32 PM CEST
Nautical Twilight 5:05 AM CEST 9:13 PM CEST
Astronomical Twilight 4:20 AM CEST 9:59 PM CEST
Moon 7:08 AM CEST (4/12) 10:27 PM CEST (4/12)
Length of Visible Light 14h 44m
Length of Day
13h 36m
Waxing Crescent, 4% of the Moon is Illuminated
Apr 12
Waxing Crescent
Apr 18
First Quarter
Apr 25
Full
May 2
Last Quarter
May 10
New

Hourly Weather History & Observations

Time (CEST) Temp. Windchill Dew Point Humidity Pressure Visibility Wind Dir Wind Speed Gust Speed Precip Events Conditions
12:00 AM 48.2 °F - 48.2 °F 100% 29.59 in 6.2 mi SSE 3.5 mph - N/A Rain Light Rain
1:00 AM 48.2 °F - 46.4 °F 93% 29.56 in 6.2 mi ESE 3.5 mph - N/A Rain Light Rain
2:00 AM 48.2 °F - 46.4 °F 93% 29.56 in 6.2 mi Variable 2.3 mph - N/A Rain Light Rain
3:00 AM 48.2 °F - 46.4 °F 93% 29.53 in 6.2 mi Variable 2.3 mph - N/A   Mostly Cloudy
4:00 AM 48.2 °F - 46.4 °F 93% 29.53 in 6.2 mi SSE 3.5 mph - N/A Rain Light Rain
5:00 AM 48.2 °F - 46.4 °F 93% 29.53 in 6.2 mi South 4.6 mph - N/A Rain Light Rain
6:00 AM 48.2 °F - 46.4 °F 93% 29.53 in 6.2 mi South 5.8 mph - N/A Rain Light Rain
7:00 AM 48.2 °F - 44.6 °F 87% 29.50 in 6.2 mi SSW 8.1 mph - N/A   Mostly Cloudy
8:00 AM 48.2 °F - 44.6 °F 87% 29.53 in 6.2 mi SW 11.5 mph - N/A   Mostly Cloudy
8:30 AM 48.2 °F - 44.6 °F 87% 29.53 in 6.2 mi WSW 13.8 mph - N/A Rain Light Rain Showers
8:50 AM 46.4 °F 41.1 °F 44.6 °F 93% 29.53 in 6.2 mi WSW 11.5 mph - N/A Rain Light Rain Showers
9:00 AM 46.4 °F 41.5 °F 44.6 °F 93% 29.56 in 6.2 mi WSW 10.4 mph - N/A Rain Light Rain Showers
9:30 AM 46.4 °F 40.4 °F 42.8 °F 87% 29.56 in 6.2 mi WSW 13.8 mph 25.3 mph N/A   Scattered Clouds
10:00 AM 46.4 °F 39.5 °F 42.8 °F 87% 29.56 in 6.2 mi WSW 17.3 mph 29.9 mph N/A   Mostly Cloudy
10:30 AM 46.4 °F 40.1 °F 41.0 °F 81% 29.59 in 6.2 mi WSW 15.0 mph 27.6 mph N/A   Mostly Cloudy
11:00 AM 46.4 °F 39.5 °F 41.0 °F 81% 29.62 in 6.2 mi West 17.3 mph 32.2 mph N/A   Mostly Cloudy
11:30 AM 46.4 °F 39.8 °F 42.8 °F 87% 29.62 in 6.2 mi West 16.1 mph - N/A   Mostly Cloudy
12:00 PM 48.2 °F - 42.8 °F 82% 29.62 in 6.2 mi WSW 16.1 mph 29.9 mph N/A   Mostly Cloudy
12:30 PM 48.2 °F - 41.0 °F 76% 29.65 in 6.2 mi WSW 17.3 mph 29.9 mph N/A   Mostly Cloudy
12:34 PM 48.2 °F - 41.0 °F 76% 29.65 in 6.2 mi SW 13.8 mph - N/A Rain Light Rain Showers
1:00 PM 46.4 °F 40.4 °F 42.8 °F 87% 29.65 in 6.2 mi WSW 13.8 mph - N/A Rain Light Rain Showers
1:30 PM 46.4 °F 39.8 °F 42.8 °F 87% 29.65 in 6.2 mi West 16.1 mph 27.6 mph N/A   Mostly Cloudy
2:00 PM 46.4 °F 40.1 °F 41.0 °F 81% 29.68 in 6.2 mi West 15.0 mph - N/A   Mostly Cloudy
2:30 PM 48.2 °F - 41.0 °F 76% 29.68 in 6.2 mi WSW 11.5 mph - N/A   Mostly Cloudy
3:00 PM 48.2 °F - 39.2 °F 71% 29.71 in 6.2 mi WSW 9.2 mph - N/A   Mostly Cloudy
3:30 PM 48.2 °F - 39.2 °F 71% 29.71 in 6.2 mi West 11.5 mph - N/A   Mostly Cloudy
4:00 PM 50.0 °F - 39.2 °F 66% 29.71 in 6.2 mi WNW 12.7 mph - N/A   Scattered Clouds
4:30 PM 48.2 °F - 37.4 °F 66% 29.71 in 6.2 mi WSW 12.7 mph 25.3 mph N/A Rain Light Rain Showers
5:00 PM 48.2 °F - 39.2 °F 71% 29.71 in 6.2 mi SW 6.9 mph - N/A   Scattered Clouds
5:30 PM 50.0 °F - 39.2 °F 66% 29.71 in 6.2 mi SW 10.4 mph - N/A   Partly Cloudy
6:00 PM 51.8 °F - 39.2 °F 62% 29.71 in 6.2 mi WSW 8.1 mph - N/A   Partly Cloudy
6:30 PM 50.0 °F - 37.4 °F 62% 29.71 in 6.2 mi SW 6.9 mph - N/A   Partly Cloudy
7:00 PM 50.0 °F - 37.4 °F 62% 29.71 in 6.2 mi SSW 5.8 mph - N/A   Partly Cloudy
7:30 PM 48.2 °F - 39.2 °F 71% 29.71 in 6.2 mi South 4.6 mph - N/A   Scattered Clouds
8:00 PM 48.2 °F - 39.2 °F 71% 29.74 in 6.2 mi SSW 4.6 mph - N/A   Partly Cloudy
8:30 PM 46.4 °F - 37.4 °F 71% 29.74 in - Variable 2.3 mph - N/A   Clear
9:00 PM 42.8 °F - 37.4 °F 81% 29.74 in - Variable 2.3 mph - N/A   Clear
10:00 PM 41.0 °F - 37.4 °F 87% 29.74 in - Variable 2.3 mph - N/A   Clear
11:00 PM 42.8 °F - 35.6 °F 76% 29.77 in - Variable 2.3 mph - N/A   Clear